Cotter, AR (72626)

11:24 AM CST on February 08, 2016 (GMT -0600)
Cotter White River Bluff | | Change Station
CLOSE
Current Station
Personal Weather Station
Location: Cotter, AR
Elevation: 535 ft
Nearby Weather Stations
Active Advisory: Wind Advisory

Elev 535 ft 36.27 °N, 92.54 °W | Updated 9 minutes ago

Overcast
Overcast
40.7 °F
Feels Like 34 °F
N
12.0
Wind Variable Wind from WNW
Gusts 16.0 mph

Today
High -- | Low -- °F
--% Chance of Precip.
Yesterday
High -- | Low -- °F
Precip. -- in
Pressure 29.99 in
Visibility 10.0 miles
Clouds Overcast 5500 ft
Windchill 34 °F
Dew Point 22 °F
Humidity 47%
Rainfall 0.00 in
Snow Depth Not available.
7:05 AM 5:43 PM
New Moon, 0% visible
METAR KBPK 081653Z AUTO 31010G23KT 10SM OVC055 03/M08 A2997 RMK AO2 PK WND 31027/1626 SLP153 T00331083
Pressure 29.99 in
Visibility 10.0 miles
Clouds Overcast 5500 ft
Windchill 34 °F
Dew Point 22 °F
Humidity 47%
Rainfall 0.00 in
Snow Depth Not available.
7:05 AM 5:43 PM
New Moon, 0% visible
METAR KBPK 081653Z AUTO 31010G23KT 10SM OVC055 03/M08 A2997 RMK AO2 PK WND 31027/1626 SLP153 T00331083

10-Day Weather Forecast

Almanac

Astronomy

Feb. 08, 2016 Rise Set
Actual Time
Civil Twilight
Nautical Twilight
Astronomical Twilight
Moon
Length of Visible Light
Length of Day
Tomorrow will be .
, % of the Moon is Illuminated

Today's Extremes

State Highs State Lows

Community

WunderPhotos

Upload Photos

1,891,471 photos uploaded!

WunderBlog® & News

Nearby

Air Quality

  Air Quality AQ Index Pollutant
Not available.

Snow Depth

Station Depth Elevation

Earthquake Activity

City Distance Mag. Time & Date
Minimum magnitude displayed is 2.5.

Coastal Water Temperatures

Place Temperature

Stations

Nearby Weather Stations

Station Location Temp. Windchill Dew Point Humidity Wind Precip. Elev Updated Type
                   

Watches & Warnings

Wind Advisory
Issued: 10:04 AM CST Feb. 8, 2016 – National Weather Service

... Wind Advisory remains in effect until 6 PM CST this evening...

* event... strong pressure gradients across the region will
result in strong northwest winds.

* Areas affected... this will affect much of Arkansas.

* Timing... the strongest winds will occur between 6 am and 6 PM
today.

* Winds... northwest winds of 20 to 30 mph with gusts up to 40
mph are expected.

* Impacts... a Wind Advisory means that sustained winds of 25 mph
or higher are expected. Winds this strong can make driving
difficult... especially for high profile vehicles.
Additionally... boaters should use extra caution today should
they decide to venture out on area lakes. Strong winds can
easily swamp or capsize small boats.

Precautionary/preparedness actions...

A Wind Advisory means that sustained winds of 25 mph or higher
are expected. Winds this strong can make driving difficult...
especially for high profile vehicles. Use extra caution.